User: anonymous   Login
Location: Dal�� Lhota
(48.7500°N, 14.0167°E)
Time: 03:28:53
(UTC+00:00)
Language:

Resurs 1-3 - Orbit

View from above orbital plane
View from above orbital plane
View from above satellite
View from above satellite

Ground track
Ground track

The orbit data is extracted from the following two-line orbital elements,

1 23342U 94074A   20338.17546238  .00000208  00000-0  34810-4 0  9990
2 23342  97.9075  24.5906 0001423 129.9439 230.1898 14.79360073404803
Epoch (UTC): 03 December 2020 04:12:39
Eccentricity: 0.0001423
inclination: 97.9075°
perigee height: 630 km
apogee height: 632 km
right ascension of ascending node: 24.5906°
argument of perigee: 129.9439°
revolutions per day: 14.79360073
mean anomaly at epoch: 230.1898°
orbit number at epoch: 40480

The dashed part of the orbit path shows where the satellite is in the earth's shadow,  

DLR